Location: New Frontier Mobile Home Park
(32.8448°N, 116.9675°W)
Time: 23:12:31
(UTC+00:00)

DMSP B5D2-2 - Pass Details

Date: 14 July 2020
Orbit: 789 x 807 km, 98.3° (Epoch: 05 August)

Event Time Altitude Azimuth Distance (km) Brightness Sun altitude
Rises 03:35:51 0° 13° (NNE) 3,290 7.5 -7.9°
Reaches altitude 10° 03:38:11 10° 15° (NNE) 2,357 6.8 -8.3°
Maximum altitude 03:43:24 80° 103° (ESE) 804 4.0 -9.2°
Drops below altitude 10° 03:48:34 10° 190° (S) 2,343 6.3 -10.1°
Sets 03:50:53 0° 191° (S) 3,270 7.0 -10.5°
